HUANGPU-1

Last updated on Wed Dec 04 2019 00:02:04 GMT+0000 (Coordinated Universal Time)

1 44705U 19072C 19336.89220019 .00001001 00000-0 44632-4 0 9997 2 44705 97.4828 49.5586 0016035 171.7913 313.1531 15.23677309 4522

Satellite not in orbit

HUANGPU-1